Weather History for Swansboro, NC

Change the Weather History Date:

Friday, November 8, 2013

  Actual Average (KNKT) Record (KNKT)
Temperature  
Mean Temperature 48 °F -  
Max Temperature 57 °F 64 °F 80 °F (1996)
Min Temperature 37 °F 44 °F 32 °F (1998)
Degree Days  
Heating Degree Days 17    
Moisture  
Dew Point 33 °F    
Average Humidity 56    
Maximum Humidity 89    
Minimum Humidity 30    
Precipitation  
Precipitation 0.00 in - - ()
Sea Level Pressure  
Sea Level Pressure 30.22 in    
Wind  
Wind Speed 8 mph (North)    
Max Wind Speed 13 mph    
Max Gust Speed 23 mph    
Visibility 10 miles    
Events      
Averages and records for this station are not official NWS values.
T = Trace of Precipitation, MM = Missing Value Source: NWS Daily Summary

Daily Weather History Graph

Daily Weather History Graph

Search for Another Location

Airport:

Trip Planner

Search our weather history database for the weather conditions in past years. The results will help you decide how hot, cold, wet, or windy it might be!

Date:

Astronomy

Nov. 08, 2013 Rise Set
Actual Time 6:35 AM EST 5:07 PM EST
Civil Twilight 6:08 AM EST 5:34 PM EST
Nautical Twilight 5:38 AM EST 6:04 PM EST
Astronomical Twilight 5:09 AM EST 6:34 PM EST
Moon 11:29 AM EST (11/8) 10:25 PM EST (11/8)
Length of Visible Light 11h 25m
Length of Day
10h 32m
Waxing Crescent, 33% of the Moon is Illuminated
Nov 8
Waxing Crescent
Nov 10
First Quarter
Nov 17
Full
Nov 25
Last Quarter
Dec 2
New

Hourly Weather History & Observations

Time (EST) Temp. Windchill Dew Point Humidity Pressure Visibility Wind Dir Wind Speed Gust Speed Precip Events Conditions
12:57 AM 52.0 °F - 36.0 °F 54% 30.06 in 10.0 mi North 10.4 mph 18.4 mph N/A   Clear
1:42 AM 51.1 °F - 35.1 °F 54% 30.06 in 10.0 mi NNW 11.5 mph 19.6 mph N/A   Mostly Cloudy
1:57 AM 50.0 °F - 35.1 °F 57% 30.09 in 10.0 mi NNW 8.1 mph 19.6 mph N/A   Overcast
2:21 AM 50.0 °F - 35.1 °F 57% 30.08 in 10.0 mi NNW 9.2 mph - N/A   Scattered Clouds
2:57 AM 48.9 °F - 35.1 °F 59% 30.11 in 10.0 mi NNW 10.4 mph - N/A   Partly Cloudy
3:57 AM 48.9 °F - 36.0 °F 61% 30.14 in 10.0 mi North 8.1 mph - N/A   Mostly Cloudy
4:57 AM 48.0 °F - 35.1 °F 61% 30.17 in 10.0 mi North 8.1 mph - N/A   Partly Cloudy
5:57 AM 46.0 °F 43.1 °F 35.1 °F 66% 30.19 in 10.0 mi North 5.8 mph - N/A   Clear
6:57 AM 45.0 °F 39.7 °F 33.1 °F 63% 30.22 in 10.0 mi North 10.4 mph 18.4 mph N/A   Clear
7:57 AM 48.0 °F - 35.1 °F 61% 30.25 in 10.0 mi North 6.9 mph - N/A   Clear
8:57 AM 51.1 °F - 30.0 °F 44% 30.26 in 10.0 mi NNE 9.2 mph 20.7 mph N/A   Clear
9:57 AM 53.1 °F - 28.0 °F 38% 30.27 in 10.0 mi NNE 11.5 mph 19.6 mph N/A   Clear
10:57 AM 55.0 °F - 27.0 °F 34% 30.27 in 10.0 mi NNE 10.4 mph 20.7 mph N/A   Clear
11:57 AM 55.0 °F - 27.0 °F 34% 30.25 in 10.0 mi NNE 12.7 mph 23.0 mph N/A   Clear
12:57 PM 57.0 °F - 26.1 °F 30% 30.22 in 10.0 mi NNE 9.2 mph - N/A   Clear
1:57 PM 57.0 °F - 27.0 °F 32% 30.22 in 10.0 mi NNW 6.9 mph - N/A   Clear
2:57 PM 57.0 °F - 27.0 °F 32% 30.21 in 10.0 mi NNW 9.2 mph - N/A   Clear
3:57 PM 57.0 °F - 28.0 °F 33% 30.23 in 10.0 mi North 8.1 mph - N/A   Clear
4:57 PM 52.0 °F - 33.1 °F 49% 30.25 in 10.0 mi NNW 3.5 mph - N/A   Clear
5:57 PM 46.0 °F 43.9 °F 36.0 °F 68% 30.27 in 10.0 mi North 4.6 mph - N/A   Clear
6:57 PM 46.0 °F 44.8 °F 35.1 °F 66% 30.30 in 10.0 mi North 3.5 mph - N/A   Clear
7:57 PM 43.0 °F - 34.0 °F 71% 30.30 in 10.0 mi Calm Calm - N/A   Clear
8:57 PM 39.9 °F - 34.0 °F 79% 30.31 in 10.0 mi Calm Calm - N/A   Clear
9:57 PM 39.9 °F - 35.1 °F 83% 30.33 in 10.0 mi Calm Calm - N/A   Clear
10:57 PM 39.0 °F - 35.1 °F 86% 30.34 in 10.0 mi Calm Calm - N/A   Clear
11:57 PM 37.9 °F - 35.1 °F 89% 30.34 in 10.0 mi Calm Calm - N/A   Clear